Find Jiaotong-7

NORAD ID: 57627 Int'l Des: 2023-121 Owner: HEAD Country: CN operational
LEOCIRCULAR

当前视图

正在加载3D地球...

关于 Jiaotong-7

正在加载描述...

即将过境

Passes for default location (London). Set your location on the main map for personalized predictions.

高度历史

Loading altitude history...

两行轨道根数

1 57627U 23121B 26150.18071190 .00001456 00000-0 32215-3 0 9999
2 57627 45.0037 33.5764 0005046 180.7184 179.3667 14.61550023149033
Epoch: May 30, 2026 • Age: 8 hours

当前状态

高度 702.4 km
速度 7.50 km/s
星下点 -42.18°S, 103.58°W
发射日期 Aug 14, 2023
运行时间 2.7 years
类型 other

技术详情

分类 Payload
质量 40.00 kg
干质量 40.00 kg
总质量 40.00 kg
长度 0.50 m
直径 0.20 m
跨度 2.00 m
形状 Box + 2 Pan
制造商 IMICAS
平台类型 WN100
阶段状态 In Orbit
所有者/国家 HEAD/CN

Most Searched